Regional Weather Roundup
Issued by NWS

Home | Current Version | Previous Version | Graphics & Text | Print | Product List | Glossary On
Versions: 1 2 3 4 5 6 7 8 9 10 11 12 13 14 15 16 17 18 19 20 21 22 23 24 25 26 27 28
000
ASUS45 KSLC 250610
RWRUT

UTAH REGIONAL WEATHER ROUNDUP
NATIONAL WEATHER SERVICE SALT LAKE CITY UT
1200 AM MDT THU MAY 25 2017

UTZ001>011-023>025-250700-

NORTHERN UTAH

CITY           SKY/WX    TMP DP  RH WIND       PRES   REMARKS
BRIGHAM CITY   CLOUDY    61  38  43 N7        29.60S
HILL AFB       MOCLDY    62  38  42 NW12      29.58S
LOGAN          LGT RAIN  56  45  66 N8        29.61S
OGDEN          CLOUDY    61  39  44 NW12      29.56S
SALT LAKE CITY CLOUDY    67  49  52 NW21      29.56R
TOOELE VALLEY  CLOUDY    63  50  63 N12       29.58S
WENDOVER       PTCLDY    66  29  24 NW20G36   29.59R
HEBER CITY     MOCLDY    50  45  81 E5        29.62F
WEST JORDAN    CLOUDY    67  47  49 S8        29.58R

$$

UTZ011>015-024>027-250700-

CENTRAL/NORTHEAST UTAH

CITY           SKY/WX    TMP DP  RH WIND       PRES   REMARKS
PROVO AIRPORT  MOCLDY    64  45  49 S10       29.57F
MOAB/CANYONLAN MOCLDY    75  34  22 NW20      29.59S
DELTA          CLOUDY    68  34  28 S7        29.60F
PRICE          CLOUDY    63  38  39 NW5       29.71S
ROOSEVELT      PTCLDY    61  43  51 W10       29.67F
VERNAL         CLOUDY    69  36  29 W20G32    29.62R

$$

UTZ013>016-019>022-027-250700-

SOUTHERN UTAH

CITY           SKY/WX    TMP DP  RH WIND       PRES   REMARKS
BRYCE CANYON   MOCLDY    58  23  26 SW8       29.89S
CEDAR CITY     PTCLDY    64  31  28 S8        29.76F
MILFORD        CLOUDY    70  32  24 S14       29.66F
ST GEORGE      MOCLDY    87  28  12 W8        29.58R
HANKSVILLE     PTCLDY    75  27  16 W8        29.62S
BLANDING       PTCLDY    68  22  17 W14       29.81S

$$

REGIONAL REPORTS     COLORADO/ARIZONA

CITY           SKY/WX    TMP DP  RH WIND       PRES   REMARKS
CRAIG, CO        N/A     59  36  42 NW6       29.64F
GRAND JUNCTION CLOUDY    70  32  24 E6        29.59F
RIFLE, CO      PTCLDY    69  32  25 CALM      29.64S
MONTROSE, CO   CLEAR     64  26  23 S8        29.70F
CORTEZ, CO     CLEAR     55  36  48 NE8       29.77S
COLORADO CITY    N/A     68  25  19 SW3       29.76R
PAGE, AZ       PTCLDY    81  25  12 SW6       29.67R
GRAND CANYON   MOCLDY    63  18  17 SW12      29.91F
KINGMAN, AZ    MOCLDY    75  17  11 MISG      29.71R
FLAGSTAFF, AZ  PTCLDY    64   6  10 SW13G22   29.97S

$$

REGIONAL REPORTS    NEVADA/IDAHO/WYOMING

CITY           SKY/WX    TMP DP  RH WIND       PRES   REMARKS
LAS VEGAS, NV  PTCLDY    87  26  11 S14G24    29.55S
ELY, NY        MOCLDY    53  36  52 S8        29.74S
ELKO, NV       LGT RAIN  53  38  56 NW3       29.73R
POCATELLO, ID  CLOUDY    56  27  32 SW18      29.61F
BURLEY, ID     MOCLDY    57  26  30 W12G21    29.63S
FORT BRIDGER,    N/A     53  42  65 SW12      29.70F
EVANSTON, WY   CLOUDY    50  42  74 W6        29.70S
ROCK SPRINGS,  LGT RAIN  53  41  63 NW16G25   29.70F
KEMMERER, WY     N/A     45  43  93 W9        29.70F

$$




USA.gov is the U.S. government's official web portal to all federal, state and local government web resources and services.